Olympia, WA

6:21 AM PDT on October 18, 2017 (GMT -0700)
Olympia

Weather History for KOLM - April, 2013

Change the Weather History Date:

Friday, April 5, 2013

  Actual Average Record
Temperature  
Mean Temperature 53 °F 47 °F  
Max Temperature 56 °F 57 °F 76 °F (1966)
Min Temperature 49 °F 37 °F 26 °F (1961)
Degree Days  
Heating Degree Days 12 18  
Month to date heating degree days 62 91  
Since 1 July heating degree days 4358 4449  
Cooling Degree Days 0 0  
Month to date cooling degree days 0 0  
Year to date cooling degree days 0 0  
Growing Degree Days 2 (Base 50)    
Moisture  
Dew Point 49 °F    
Average Humidity 92    
Maximum Humidity 100    
Minimum Humidity 83    
Precipitation  
Precipitation 1.06 in 0.14 in 1.06 in (2013)
Month to date precipitation 1.48 0.72  
Year to date precipitation 13.31 19.12  
Sea Level Pressure  
Sea Level Pressure 29.83 in    
Wind  
Wind Speed 10 mph (SSW)    
Max Wind Speed 22 mph    
Max Gust Speed 30 mph    
Visibility 6 miles    
Events Rain    
T = Trace of Precipitation, MM = Missing Value Source: NWS Daily Summary

Daily Weather History Graph

Daily Weather History Graph

Search for Another Location

Airport or City:

Trip Planner

Search our weather history database for the weather conditions in past years. The results will help you decide how hot, cold, wet, or windy it might be!

Date:

Astronomy

Apr. 05, 2013 Rise Set
Actual Time 6:42 AM PDT 7:46 PM PDT
Civil Twilight 6:11 AM PDT 8:18 PM PDT
Nautical Twilight 5:33 AM PDT 8:55 PM PDT
Astronomical Twilight 4:54 AM PDT 9:35 PM PDT
Moon 4:10 AM PDT (4/5) 3:01 PM PDT (4/5)
Length of Visible Light 14h 06m
Length of Day
13h 04m
Waning Crescent, 22% of the Moon is Illuminated
Apr 5
Waning Crescent
Apr 10
New
Apr 18
First Quarter
Apr 25
Full
May 2
Last Quarter

Hourly Weather History & Observations

Time (PDT) Temp. Dew Point Humidity Pressure Visibility Wind Dir Wind Speed Gust Speed Precip Events Conditions
12:54 AM 52.0 °F 50.0 °F 93% 29.76 in 7.0 mi SSW 11.5 mph - 0.04 in Rain Light Rain
1:54 AM 52.0 °F 50.0 °F 93% 29.77 in 5.0 mi South 13.8 mph 21.9 mph 0.10 in Rain Light Rain
2:54 AM 51.1 °F 50.0 °F 96% 29.76 in 5.0 mi South 12.7 mph - 0.13 in Rain Light Rain
3:54 AM 51.1 °F 48.9 °F 92% 29.76 in 4.0 mi South 15.0 mph - 0.13 in Rain Rain
4:05 AM 51.1 °F 48.9 °F 92% 29.77 in 4.0 mi SSW 12.7 mph - 0.03 in Rain Rain
4:10 AM 51.1 °F 48.9 °F 92% 29.78 in 4.0 mi SW 9.2 mph - 0.04 in Rain Rain
4:17 AM 51.1 °F 50.0 °F 96% 29.78 in 3.0 mi SSW 9.2 mph - 0.07 in Rain Rain
4:46 AM 51.1 °F 48.9 °F 92% 29.79 in 5.0 mi SSW 10.4 mph - 0.13 in Rain Light Rain
4:54 AM 51.1 °F 48.9 °F 92% 29.79 in 5.0 mi SSW 11.5 mph - 0.14 in Rain Light Rain
5:26 AM 51.1 °F 48.9 °F 92% 29.80 in 5.0 mi SW 9.2 mph - 0.08 in Rain Light Rain
5:39 AM 51.1 °F 48.9 °F 92% 29.81 in 4.0 mi SSW 11.5 mph - 0.11 in Rain Light Rain
5:54 AM 51.1 °F 50.0 °F 96% 29.81 in 4.0 mi SSW 10.4 mph - 0.13 in Rain Light Rain
6:37 AM 51.1 °F 50.0 °F 96% 29.82 in 4.0 mi SW 10.4 mph - 0.03 in Rain Light Rain
6:45 AM 51.1 °F 48.9 °F 92% 29.83 in 5.0 mi SW 8.1 mph - 0.04 in Rain Light Rain
6:54 AM 51.1 °F 48.9 °F 92% 29.83 in 3.0 mi SSW 9.2 mph - 0.05 in Rain Light Rain
7:04 AM 50.0 °F 48.9 °F 96% 29.83 in 2.5 mi SSW 9.2 mph - 0.02 in Rain Light Rain
7:20 AM 50.0 °F 48.9 °F 96% 29.84 in 4.0 mi SSW 8.1 mph - 0.03 in Rain Light Rain
7:33 AM 50.0 °F 48.9 °F 96% 29.84 in 6.0 mi SSW 6.9 mph - 0.03 in Rain Light Rain
7:50 AM 51.8 °F 48.2 °F 88% 29.85 in 8.0 mi SSW 10.4 mph - 0.03 in   Overcast
7:51 AM 51.1 °F 48.9 °F 92% 29.85 in 8.0 mi SSW 9.2 mph - 0.03 in   Overcast
8:14 AM 51.1 °F 48.9 °F 92% 29.85 in 9.0 mi SSW 9.2 mph - 0.01 in Rain Light Rain
8:54 AM 51.1 °F 48.9 °F 92% 29.87 in 10.0 mi SSW 12.7 mph - 0.02 in   Overcast
9:07 AM 51.1 °F 48.9 °F 92% 29.87 in 10.0 mi SSW 10.4 mph - N/A   Overcast
9:54 AM 52.0 °F 48.9 °F 89% 29.88 in 10.0 mi SSW 5.8 mph - N/A   Overcast
10:54 AM 53.1 °F 48.0 °F 83% 29.89 in 8.0 mi WSW 8.1 mph - 0.00 in Rain Light Rain
11:06 AM 52.0 °F 48.9 °F 89% 29.89 in 6.0 mi WSW 6.9 mph - 0.00 in Rain Light Rain
11:54 AM 53.1 °F 48.9 °F 86% 29.90 in 4.0 mi SW 15.0 mph 23.0 mph 0.00 in Rain Light Rain
12:34 PM 55.0 °F 48.9 °F 80% 29.89 in 10.0 mi WSW 10.4 mph 17.3 mph 0.00 in   Overcast
12:54 PM 55.9 °F 48.9 °F 77% 29.89 in 10.0 mi West 11.5 mph 18.4 mph 0.00 in   Overcast
1:10 PM 54.0 °F 48.9 °F 83% 29.90 in 6.0 mi WSW 10.4 mph 18.4 mph N/A   Haze
1:54 PM 54.0 °F 48.9 °F 83% 29.90 in 9.0 mi SSW 10.4 mph - N/A   Overcast
2:54 PM 55.0 °F 48.0 °F 77% 29.89 in 8.0 mi SW 10.4 mph - 0.00 in Rain Light Rain
3:54 PM 53.1 °F 48.9 °F 86% 29.89 in 6.0 mi SW 5.8 mph - 0.04 in Rain Light Rain
4:54 PM 51.1 °F 48.9 °F 92% 29.88 in 7.0 mi SW 6.9 mph - 0.03 in Rain Light Rain
5:34 PM 51.1 °F 50.0 °F 96% 29.87 in 5.0 mi SW 3.5 mph - 0.02 in Rain Light Rain
5:54 PM 52.0 °F 50.0 °F 93% 29.87 in 4.0 mi South 4.6 mph - 0.04 in Rain Light Rain
6:54 PM 50.0 °F 46.9 °F 89% 29.86 in 5.0 mi Variable 6.9 mph - 0.04 in Rain Light Rain
7:54 PM 48.9 °F 48.0 °F 97% 29.85 in 10.0 mi South 5.8 mph - 0.01 in Rain Light Rain
8:54 PM 48.9 °F 48.0 °F 97% 29.83 in 8.0 mi South 6.9 mph - 0.03 in Rain Light Rain
9:54 PM 48.9 °F 46.9 °F 93% 29.81 in 9.0 mi South 5.8 mph - 0.02 in Rain Light Rain
10:54 PM 50.0 °F 46.9 °F 89% 29.77 in 6.0 mi South 6.9 mph - 0.06 in Rain Light Rain
11:54 PM 50.0 °F 46.9 °F 89% 29.73 in 10.0 mi South 9.2 mph - 0.02 in Rain Light Rain